Theta_e
302 296 293 295 297 301 305 306 306 310 319 327 329 340 341 350 355 358 356 355 355 359 359 360 361 361 360 361 361 362 361 361
299 295 295 295 300 301 304 305 307 307 306 311 333 343 350 352 356 356 355 352 356 359 359 359 360 360 360 360 360 361 360 360
297 296 299 300 301 304 303 304 306 305 306 308 332 345 351 352 355 355 354 351 355 358 359 360 360 360 360 359 359 359 359 359
293 296 299 302 305 305 304 306 308 307 307 311 332 320 330 351 354 356 355 352 355 358 359 358 360 359 358 358 358 358 358 358
295 295 297 301 305 303 303 303 305 309 305 312 319 316 325 349 356 357 355 353 353 352 357 358 358 357 357 357 357 357 357 357
295 294 294 302 302 303 302 302 309 309 305 306 314 316 333 348 353 356 354 353 352 351 349 352 354 358 357 357 357 358 358 357
292 293 295 302 300 304 306 303 305 308 308 311 314 317 333 344 349 352 352 353 351 349 349 349 350 354 357 357 358 358 357 357
297 298 298 301 301 302 302 302 303 305 309 312 313 314 326 337 343 348 350 351 351 349 347 348 349 352 351 351 351 351 353 354
299 301 303 300 301 304 302 300 304 303 307 310 312 312 316 331 341 345 350 351 351 351 352 347 347 351 350 351 352 353 355 354
301 302 301 300 302 301 303 304 308 308 310 311 311 311 312 317 336 345 347 348 350 352 352 349 348 349 349 348 350 350 352 354
301 301 301 301 298 299 300 306 309 310 310 309 311 312 315 318 331 345 346 349 350 353 353 349 350 349 348 348 349 349 351 352
300 301 300 297 299 299 300 305 305 307 308 310 310 312 315 318 337 346 347 348 351 352 351 350 349 350 348 348 349 348 349 349
299 297 297 301 296 296 302 305 304 306 306 307 310 313 315 318 323 345 348 350 350 350 350 348 349 348 348 347 346 345 346 349
297 299 301 298 293 301 304 302 302 303 305 306 308 311 314 319 330 340 348 349 350 348 347 347 350 348 346 346 345 344 344 346
295 300 299 297 295 300 303 305 304 305 306 306 306 309 315 318 335 343 347 349 348 349 347 348 351 348 347 347 344 343 343 343
294 299 300 298 297 302 305 304 304 305 306 306 306 307 312 317 333 345 347 349 350 350 351 350 348 347 345 344 343 342 342 341
297 301 298 298 298 300 304 304 304 305 305 304 305 309 313 315 321 342 345 347 350 348 349 348 343 342 342 339 340 340 341 343
298 300 299 298 298 302 303 304 305 304 304 304 305 307 310 317 318 335 343 343 347 348 349 347 345 345 343 341 340 341 342 344
294 298 300 298 296 299 304 305 304 306 307 307 306 306 310 313 317 331 341 342 344 347 348 347 347 345 341 341 339 339 340 341
295 294 289 298 285 296 300 300 302 304 305 306 307 308 309 312 314 330 339 344 344 344 346 345 346 341 337 336 335 337 339 340
Wind_Speed
4 4 9 5 4 4 7 6 5 4 3 4 3 3 5 5 12 16 17 16 15 16 19 23 24 22 20 19 19 18 18 18
5 11 4 2 5 3 6 1 2 5 9 4 8 10 12 2 13 16 17 16 18 19 16 19 22 21 21 20 19 19 19 16
5 5 3 5 5 5 7 6 7 7 6 5 6 9 10 1 10 16 17 15 18 18 19 18 20 20 21 20 18 18 18 17
10 8 2 3 6 7 5 6 9 5 11 2 6 15 14 4 9 13 16 17 18 18 18 18 18 18 18 19 19 17 17 17
1 2 2 1 8 4 4 9 6 13 8 5 8 19 19 6 9 11 14 16 16 17 16 17 17 18 17 17 18 18 16 15
1 1 3 0 10 6 8 9 12 5 6 5 12 22 15 4 8 11 13 16 17 16 16 15 14 15 17 16 15 16 15 15
3 4 1 7 8 9 6 13 14 11 17 16 22 16 9 4 8 10 12 15 16 17 16 15 15 14 14 17 16 14 14 13
4 4 7 11 12 11 8 14 17 18 20 17 14 14 10 8 10 13 15 17 15 16 16 15 11 15 13 12 11 11 11 12
7 11 11 8 14 13 13 18 16 16 20 20 18 14 13 10 12 14 14 14 17 15 13 14 11 9 8 8 7 8 11 10
11 11 9 14 13 19 20 20 20 20 20 22 21 18 15 14 14 14 15 15 15 16 13 13 9 9 8 8 9 8 9 10
11 17 20 18 21 24 25 22 22 22 20 21 18 20 16 14 16 15 17 17 16 15 15 13 12 9 9 9 8 9 9 9
14 19 11 11 19 11 10 13 19 23 20 21 20 18 14 11 14 17 19 20 19 18 13 15 12 13 9 8 9 9 9 10
11 2 6 9 19 14 14 13 15 17 14 15 17 14 13 11 13 18 18 20 22 20 16 15 16 13 10 8 8 8 8 10
2 10 9 4 26 12 11 8 10 13 14 16 18 17 14 12 12 16 18 21 21 16 18 17 17 13 10 10 9 8 7 7
16 4 9 7 25 2 7 17 24 21 23 17 19 20 15 11 11 15 19 20 21 22 21 21 18 13 12 12 9 8 8 7
20 8 18 27 33 27 22 21 23 21 20 19 18 20 18 9 11 14 18 20 20 18 19 20 14 12 9 8 8 8 8 7
25 24 22 25 23 30 23 23 24 24 20 19 19 20 17 12 11 15 16 19 20 20 19 15 14 14 13 12 10 8 7 9
17 12 18 26 28 30 27 25 25 26 23 22 20 19 20 14 10 17 19 20 21 20 20 17 13 11 11 11 9 8 8 9
23 24 20 26 24 18 23 18 16 20 23 22 22 21 21 18 13 16 20 21 20 20 20 18 17 12 9 10 7 8 9 9
24 20 12 15 16 21 15 13 11 16 19 20 22 23 22 19 14 15 20 20 20 20 20 18 19 16 19 12 12 9 9 8
Wind_Direction
191 213 229 252 190 249 291 319 326 306 311 292 278 309 309 77 148 148 152 156 161 172 161 149 150 152 147 145 143 141 140 143
231 214 212 269 134 352 340 229 19 334 282 292 351 353 1 106 152 157 157 163 160 165 164 157 153 153 146 147 146 143 142 143
233 225 262 239 269 292 313 306 313 338 284 298 40 15 12 211 183 171 161 167 162 164 162 165 158 154 150 149 147 145 144 144
241 231 224 258 316 302 313 325 319 322 308 260 114 18 358 257 202 186 168 164 163 164 165 166 158 154 154 149 149 147 146 148
305 232 275 21 341 39 9 322 304 326 283 291 258 351 337 250 185 178 175 168 167 169 168 162 161 155 157 152 151 148 150 152
359 27 258 325 344 335 328 305 319 291 258 288 317 333 340 236 194 175 183 176 169 168 171 170 165 162 157 155 154 151 154 153
239 233 173 299 314 303 284 275 278 269 283 292 307 325 337 225 205 193 188 184 178 173 170 170 168 168 162 160 159 155 159 158
209 219 265 283 280 285 280 279 277 278 280 292 301 313 307 244 224 215 191 190 185 185 176 170 169 166 174 173 176 175 179 177
249 257 286 262 273 272 267 266 264 272 289 294 300 299 285 261 240 220 214 199 191 184 177 176 170 169 171 172 176 177 183 183
287 286 277 267 281 269 256 257 271 268 277 284 287 288 285 267 237 214 204 207 198 186 179 179 168 176 172 177 175 178 184 183
271 279 274 279 264 262 269 261 253 258 262 266 271 281 284 266 246 216 205 196 196 183 183 176 169 172 183 183 185 180 180 178
278 272 270 259 268 254 260 269 259 262 255 265 268 271 281 277 233 210 204 198 189 181 173 180 180 172 179 184 182 185 182 178
281 298 254 302 266 242 259 278 275 266 266 271 274 276 268 269 243 218 205 194 187 178 165 178 182 171 173 177 185 192 188 182
6 286 309 278 278 295 269 262 261 262 272 286 275 280 281 281 248 214 205 195 187 173 167 172 180 173 174 177 183 186 185 188
314 295 289 255 290 288 266 284 275 266 273 266 273 279 272 277 247 204 199 192 187 181 173 172 178 171 180 179 182 180 180 188
293 286 285 283 279 284 280 271 268 265 259 258 254 263 272 265 243 212 195 190 187 181 177 171 169 168 172 180 184 183 182 185
291 295 290 274 281 284 282 271 263 258 250 241 244 253 265 259 237 214 197 191 185 178 173 168 171 174 183 186 184 178 180 179
290 292 299 289 285 288 284 275 268 263 254 244 233 235 255 255 226 209 200 192 183 183 175 176 176 178 174 172 184 180 178 182
294 307 287 286 283 288 300 303 279 266 255 251 242 234 238 243 224 205 201 193 186 182 180 179 177 159 142 147 140 172 178 181
296 308 306 333 297 300 308 318 302 271 262 254 236 233 239 238 228 202 201 193 186 182 180 180 174 173 155 162 175 180 174 179